Le nostre stazioni meteo in Italia

Pubblicità
Il mio iltempo24.it
Lampedusa, Italia (16490): Temperatura & dewpoint: 10.07.2018 20:00:00 - 16.07.2018 20:00:00 (CEST)Lampedusa, Italia (16490): velocità del vento: 10.07.2018 20:00:00 - 16.07.2018 20:00:00 (CEST)Lampedusa, Italia (16490): direzione del vento: 10.07.2018 20:00:00 - 16.07.2018 20:00:00 (CEST)Lampedusa, Italia (16490): visibility: 10.07.2018 20:00:00 - 16.07.2018 20:00:00 (CEST)
Data & Tempo tt [°C] td [°C] ff [km/h] ff [kn] dd vv [km]
16.07.2018 20:00:00 27,0 25,0 9 5 SSE 10
16.07.2018 19:00:00 28,0 25,0 8 4 S 10
16.07.2018 18:00:00 - - - - - -
16.07.2018 17:00:00 - - - - - -
16.07.2018 16:00:00 29,0 24,0 15 8 SSO 10
16.07.2018 15:00:00 29,0 24,0 18 10 SE 10
16.07.2018 14:00:00 28,0 24,0 9 5 ESE 10
16.07.2018 13:00:00 28,0 24,0 9 5 NE 10
16.07.2018 12:00:00 28,0 24,0 11 6 NE 10
16.07.2018 11:00:00 28,0 24,0 5 3 N 10
16.07.2018 10:00:00 27,0 24,0 9 5 NNE 10
16.07.2018 09:00:00 26,0 24,0 11 6 ENE 10
16.07.2018 08:00:00 26,0 24,0 11 6 NE 10
16.07.2018 07:00:00 25,0 24,0 18 10 NNE 10
16.07.2018 06:00:00 25,0 24,0 18 10 N 10
16.07.2018 05:00:00 - - - - - -
16.07.2018 04:00:00 - - - - - -
16.07.2018 03:00:00 - - - - - -
16.07.2018 02:00:00 - - - - - -
16.07.2018 01:00:00 - - - - - -
16.07.2018 00:00:00 - - - - - -
15.07.2018 23:00:00 - - - - - -
15.07.2018 22:00:00 26,0 23,0 22 12 NNO 10
15.07.2018 21:00:00 26,0 24,0 28 15 N 10
15.07.2018 20:00:00 26,0 23,0 24 13 NNO 10
15.07.2018 19:00:00 27,0 22,0 28 15 NNO 10
15.07.2018 18:00:00 28,0 23,0 24 13 NNO 10
15.07.2018 17:00:00 28,0 23,0 24 13 NNO 10
15.07.2018 16:00:00 28,0 23,0 28 15 NNO 10
15.07.2018 15:00:00 28,0 23,0 22 12 NO 10
15.07.2018 14:00:00 28,0 23,0 22 12 NO 10
15.07.2018 13:00:00 28,0 23,0 22 12 N 10
15.07.2018 12:00:00 28,0 23,0 26 14 N 10
15.07.2018 11:00:00 27,0 23,0 24 13 NNO 10
15.07.2018 10:00:00 27,0 23,0 18 10 N 10
15.07.2018 09:00:00 26,0 23,0 16 9 N 10
15.07.2018 08:00:00 26,0 23,0 13 7 N 10
15.07.2018 07:00:00 25,0 24,0 13 7 N 9
15.07.2018 06:00:00 25,0 24,0 18 10 N 7
15.07.2018 05:00:00 - - - - - -
15.07.2018 04:00:00 - - - - - -
15.07.2018 03:00:00 - - - - - -
15.07.2018 02:00:00 - - - - - -
15.07.2018 01:00:00 - - - - - -
15.07.2018 00:00:00 26,0 25,0 13 7 NNE 10
14.07.2018 23:00:00 26,0 24,0 11 6 N 10
14.07.2018 22:00:00 27,0 24,0 13 7 NNO 10
14.07.2018 21:00:00 28,0 22,0 11 6 NNO 10
14.07.2018 20:00:00 28,0 24,0 5 3 S 10
14.07.2018 19:00:00 28,0 23,0 11 6 SSE 10
14.07.2018 18:00:00 29,0 23,0 16 9 SSE 10
14.07.2018 17:00:00 30,0 23,0 18 10 SSE 10
14.07.2018 16:00:00 30,0 24,0 18 10 SE 10
14.07.2018 15:00:00 30,0 21,0 22 12 SE 10
14.07.2018 14:00:00 30,0 24,0 16 9 SSE 10
14.07.2018 13:00:00 29,0 25,0 21 11 SSE 10
14.07.2018 12:00:00 28,0 25,0 16 9 SE 10
14.07.2018 11:00:00 28,0 25,0 11 6 SE 10
14.07.2018 10:00:00 28,0 25,0 11 6 SE 10
14.07.2018 09:00:00 27,0 25,0 9 5 SE 10
14.07.2018 08:00:00 26,0 25,0 11 6 ESE 10
14.07.2018 07:00:00 26,0 24,0 5 3 SE 10
14.07.2018 06:00:00 25,0 24,0 8 4 SE 10
14.07.2018 05:00:00 - - - - - -
14.07.2018 04:00:00 - - - - - -
14.07.2018 03:00:00 - - - - - -
14.07.2018 02:00:00 - - - - - -
14.07.2018 01:00:00 - - - - - -
14.07.2018 00:00:00 - - - - - -
13.07.2018 23:00:00 - - - - - -
13.07.2018 22:00:00 27,0 23,0 15 8 SSE 10
13.07.2018 21:00:00 27,0 24,0 15 8 SSE 10
13.07.2018 20:00:00 28,0 24,0 18 10 SSE 10
13.07.2018 19:00:00 28,0 24,0 15 8 SSE 10
13.07.2018 18:00:00 29,0 24,0 18 10 SSE 10
13.07.2018 17:00:00 29,0 24,0 18 10 SSE 10
13.07.2018 16:00:00 29,0 24,0 16 9 SSE 10
13.07.2018 15:00:00 29,0 23,0 15 8 SSE 10
13.07.2018 14:00:00 29,0 24,0 15 8 SSE 10
13.07.2018 13:00:00 29,0 24,0 13 7 SSE 10
13.07.2018 12:00:00 28,0 24,0 11 6 SSE 10
13.07.2018 11:00:00 28,0 24,0 9 5 SSE 10
13.07.2018 10:00:00 27,0 24,0 11 6 S 10
13.07.2018 09:00:00 26,0 24,0 9 5 SSO 10
13.07.2018 08:00:00 26,0 25,0 9 5 SSO 10
13.07.2018 07:00:00 25,0 25,0 9 5 S 10
13.07.2018 06:00:00 25,0 24,0 9 5 S 10
13.07.2018 05:00:00 - - - - - -
13.07.2018 04:00:00 - - - - - -
13.07.2018 03:00:00 - - - - - -
13.07.2018 02:00:00 - - - - - -
13.07.2018 01:00:00 - - - - - -
13.07.2018 00:00:00 26,0 24,0 11 6 SSE 10
12.07.2018 23:00:00 26,0 23,0 9 5 S 10
12.07.2018 22:00:00 26,0 23,0 11 6 SSE 10
12.07.2018 21:00:00 26,0 24,0 15 8 SE 10
12.07.2018 20:00:00 - - - - - -
12.07.2018 19:00:00 28,0 23,0 13 7 SSE 10
12.07.2018 18:00:00 28,0 22,0 15 8 SSE 10
12.07.2018 17:00:00 29,0 22,0 9 5 SSE 10
12.07.2018 16:00:00 29,0 23,0 13 7 SSE 10
12.07.2018 15:00:00 29,0 23,0 11 6 SSE 10
12.07.2018 14:00:00 28,0 23,0 11 6 S 10
12.07.2018 13:00:00 28,0 23,0 11 6 S 10
12.07.2018 12:00:00 28,0 23,0 13 7 S 10
12.07.2018 11:00:00 27,0 24,0 13 7 SSE 10
12.07.2018 10:00:00 27,0 24,0 8 4 SE 10
12.07.2018 09:00:00 26,0 24,0 5 3 SSO 10
12.07.2018 08:00:00 25,0 24,0 5 3 S 10
12.07.2018 07:00:00 24,0 24,0 5 3 SO 10
12.07.2018 06:00:00 24,0 24,0 4 2 OSO 10
12.07.2018 05:00:00 - - - - - -
12.07.2018 04:00:00 - - - - - -
12.07.2018 03:00:00 - - - - - -
12.07.2018 02:00:00 - - - - - -
12.07.2018 01:00:00 - - - - - -
12.07.2018 00:00:00 - - - - - -
11.07.2018 23:00:00 - - - - - -
11.07.2018 22:00:00 26,0 23,0 13 7 SO 10
11.07.2018 21:00:00 26,0 22,0 11 6 SSO 10
11.07.2018 20:00:00 27,0 22,0 9 5 SO 10
11.07.2018 19:00:00 27,0 23,0 13 7 SO 10
11.07.2018 18:00:00 28,0 23,0 16 9 SO 10
11.07.2018 17:00:00 27,0 23,0 18 10 SO 10
11.07.2018 16:00:00 28,0 23,0 16 9 SO 10
11.07.2018 15:00:00 28,0 22,0 21 11 SO 10
11.07.2018 14:00:00 28,0 20,0 18 10 SO 10
11.07.2018 13:00:00 27,0 21,0 18 10 SO 10
11.07.2018 12:00:00 27,0 19,0 16 9 SO 10
11.07.2018 11:00:00 27,0 18,0 9 5 SSO 10
11.07.2018 10:00:00 27,0 21,0 11 6 OSO 10
11.07.2018 09:00:00 - - - - - -
11.07.2018 08:00:00 25,0 20,0 11 6 O 10
11.07.2018 07:00:00 23,0 21,0 11 6 ONO 10
11.07.2018 06:00:00 23,0 21,0 9 5 O 10
11.07.2018 05:00:00 - - - - - -
11.07.2018 04:00:00 - - - - - -
11.07.2018 03:00:00 - - - - - -
11.07.2018 02:00:00 - - - - - -
11.07.2018 01:00:00 - - - - - -
11.07.2018 00:00:00 - - - - - -
10.07.2018 23:00:00 - - - - - -
10.07.2018 22:00:00 24,0 22,0 11 6 N 10
10.07.2018 21:00:00 25,0 23,0 9 5 N 10
10.07.2018 20:00:00 25,0 23,0 11 6 NNE 10

tt = Temperatura
td = dewpoint
ff = velocità del vento
dd = direzione del vento
vv = visibility

Stazioni seguenti

WeatherPro
AMSI
MeteoEarth